FENGYUN 1C DEB, 31285

Orbit data source: Space-Track

FENGYUN 1C DEB, 31285 is space debris in SSO originally from a launch on Mon, 10 May 1999 UTC launched from the Taiyaun Space Center, China (TSC). Fengyun 1C debris stems from the Chinese weather satellite Fengyun-1C, which was intentionally destroyed by a Chinese anti-satellite missile in 2007. This event dramatically increased the amount of space debris, with thousands of trackable fragments posing hazards to satellites and human spaceflight. The Fengyun 1C debris cloud has become a focal point in discussions about space sustainability and the need for international regulations to prevent the creation of new debris.

Loading next visibility...
Identifier
31285, 1999-025BNT
Orbit
SSO
Country
Flag of CNCN / PRC
Related business
Manufacturer
Unknown
Mission
Spacecraft
Bus & Motor
Unknown
Mass
Unknown
Launch date (UTC)
1999-05-10 (27 years ago)
Launch vehicle
Unknown
Launch site
Taiyaun Space Center, China (TSC)
Object type
Payload
Rocket body
Debris
Shape & HBR
Unknown shape, 0.1 m
Radar Cross Section
Small (<0.1 m²)

Expand to show TLE details & history
Last TLE update: 2 days ago

TLE from 2 days ago
0 FENGYUN 1C DEB
1 31285U 99025BNT 25353.42066574  .00000286  00000-0  11266-3 0  9991
2 31285  98.5199 333.6552 0200057 167.2649 346.4457 14.26045486973943
Epoch: 2025-12-19T10:05Z
TLE epoch observation values (Epoch: 2025-12-19T10:05:45.519Z)
Latitude
26.55879°
Longitude
-81.77539°
Altitude
668.657 km
Speed
7.598 km/s
True Right ascension
10h 31m 42s
True Declination
26° 25' 11"
Sunlit
Object was in full shadow at epoch
Visualization orbit readout
Latitude
Unknown
Longitude
Unknown
Altitude
Unknown
Speed
Unknown
Apparent Right ascension
Unknown
Apparent Declination
Unknown
Sunlit
N/A
Visualization observer readout
Local Sidereal Time
03:44:54
Azimuth
Unknown
Elevation
Unknown
Doppler factor
Unknown
Orbital elements
Apogee altitude
945.766 km
Perigee altitude
658.473 km
Semi-major axis
7,180.256 km
Eccentricity
0.02001
Inclination
98.5199°
RAAN
333.6552°
Arg. of periapsis
167.2649°
True anomaly
345.89505°
Mean anomaly
346.4457°
Eccentric anomaly
346.17173°
Mean motion
3.56725 °/min
Orbital period
100.92 mins
BSTAR
0.00011266
Loading maneuver chart data...
Computing Atmospheric mass density...

Documentation

Showing up to 5 results
|